This is the latest recevied weather packets stored in our database for station/object CT2IRJ-11. If no packets are shown the sender has not sent any weather packets the latest 10 day(s).
| Time | Temp. | Humidity | Pressure | Rain* | Wind** | Luminosity | Snow |
|---|---|---|---|---|---|---|---|
| 1777884810 | 15.56° C | 78% | 1016.9 hPa | 0 mm | - | 204 W/m² | - |
| 1777884509 | 15.56° C | 79% | 1016.6 hPa | 0 mm | - | 225 W/m² | - |
| 1777884210 | 16.11° C | 81% | 1016.6 hPa | 0 mm | - | 199 W/m² | - |
| 1777883910 | 16.11° C | 81% | 1016.6 hPa | 0 mm | - | 202 W/m² | - |
| 1777883609 | 16.11° C | 83% | 1016.6 hPa | 0 mm | - | 210 W/m² | - |
| 1777883310 | 16.11° C | 82% | 1016.6 hPa | 0 mm | - | 250 W/m² | - |
| 1777883010 | 16.11° C | 83% | 1016.6 hPa | 0 mm | - | 320 W/m² | - |
| 1777882709 | 16.11° C | 86% | 1016.6 hPa | 0 mm | - | 200 W/m² | - |
| 1777882410 | 15.56° C | 87% | 1016.6 hPa | 0 mm | - | 228 W/m² | - |
| 1777882109 | 15.56° C | 89% | 1016.6 hPa | 0 mm | - | 328 W/m² | - |
| 1777881810 | 15° C | 90% | 1016.6 hPa | 0 mm | - | 334 W/m² | - |
| 1777881510 | 13.89° C | 90% | 1016.6 hPa | 0 mm | - | 241 W/m² | - |
| 1777881209 | 13.89° C | 91% | 1016.6 hPa | 0 mm | - | 213 W/m² | - |
| 1777880909 | 13.89° C | 91% | 1016.6 hPa | 0 mm | - | 200 W/m² | - |
| 1777880609 | 13.33° C | 91% | 1016.6 hPa | 0 mm | - | 136 W/m² | - |
| 1777880309 | 12.78° C | 91% | 1016.6 hPa | 0 mm | - | 89 W/m² | - |
| 1777880010 | 13.33° C | 91% | 1016.3 hPa | 0 mm | - | 92 W/m² | - |
| 1777879710 | 13.33° C | 91% | 1016.3 hPa | 0 mm | - | 95 W/m² | - |
| 1777879412 | 13.33° C | 91% | 1016.3 hPa | 0 mm | - | 110 W/m² | - |
| 1777879110 | 13.33° C | 91% | 1015.9 hPa | 0 mm | - | 110 W/m² | - |
| 1777878809 | 12.78° C | 91% | 1015.9 hPa | 0 mm | - | 154 W/m² | - |
| 1777878510 | 12.22° C | 92% | 1015.9 hPa | 0 mm | - | 104 W/m² | - |
| 1777878209 | 12.22° C | 92% | 1015.9 hPa | 0 mm | - | 90 W/m² | - |
| 1777877910 | 11.67° C | 92% | 1015.9 hPa | 0 mm | - | 67 W/m² | - |
| 1777877613 | 11.67° C | 92% | 1015.6 hPa | 0 mm | - | 53 W/m² | - |
* Rain latest hour (hover to see other rain measurements)
** Current wind speed in m/s (hover to see current wind gust speed)